Weather History for KMQJ - March, 2014

Change the Weather History Date:

Tuesday, March 25, 2014

  Actual Average (KEYE) Record (KEYE)
Temperature  
Mean Temperature 29 °F 46 °F  
Max Temperature 35 °F 55 °F 80 °F (2007)
Min Temperature 23 °F 37 °F 19 °F (2001)
Degree Days  
Heating Degree Days 36 19  
Month to date heating degree days 591  
Since 1 July heating degree days 4716  
Cooling Degree Days 0 0  
Month to date cooling degree days 0  
Year to date cooling degree days 0  
Moisture  
Dew Point 18 °F    
Average Humidity 69    
Maximum Humidity 86    
Minimum Humidity 44    
Precipitation  
Precipitation 0.00 in 0.13 in 0.73 in (2002)
Month to date precipitation 2.47  
Year to date precipitation 6.81  
Sea Level Pressure  
Sea Level Pressure 30.08 in    
Wind  
Wind Speed 7 mph (WNW)    
Max Wind Speed 26 mph    
Max Gust Speed 32 mph    
Visibility 9 miles    
Events      
T = Trace of Precipitation, MM = Missing Value Source: NWS Daily Summary

Daily Weather History Graph

Daily Weather History Graph

Search for Another Location

Airport or City:

Trip Planner

Search our weather history database for the weather conditions in past years. The results will help you decide how hot, cold, wet, or windy it might be!

Date:

Astronomy

Mar. 25, 2014 Rise Set
Actual Time 7:38 AM EDT 8:00 PM EDT
Civil Twilight 7:11 AM EDT 8:27 PM EDT
Nautical Twilight 6:40 AM EDT 8:59 PM EDT
Astronomical Twilight 6:07 AM EDT 9:32 PM EDT
Moon 3:59 AM EDT (3/25) 2:31 PM EDT (3/25)
Length of Visible Light 13h 15m
Length of Day
12h 21m
Waning Crescent, 32% of the Moon is Illuminated
Mar 25
Waning Crescent
Mar 30
New
Apr 7
First Quarter
Apr 15
Full
Apr 22
Last Quarter

Hourly Weather History & Observations

Time (EDT) Temp. Windchill Dew Point Humidity Pressure Visibility Wind Dir Wind Speed Gust Speed Precip Events Conditions
12:15 AM 26.6 °F - 19.4 °F 74% 30.10 in 10.0 mi Calm Calm - N/A   Clear
12:34 AM 26.6 °F - 19.4 °F 74% 30.10 in 10.0 mi Calm Calm - N/A   Clear
12:55 AM 26.6 °F - 21.2 °F 80% 30.10 in 10.0 mi Calm Calm - N/A   Clear
1:15 AM 26.6 °F - 21.2 °F 80% 30.10 in 10.0 mi Calm Calm - N/A   Clear
1:34 AM 28.4 °F - 19.4 °F 69% 30.10 in 10.0 mi Calm Calm - N/A   Clear
1:55 AM 26.6 °F - 17.6 °F 69% 30.09 in 10.0 mi Calm Calm - N/A   Clear
2:14 AM 24.8 °F - 21.2 °F 86% 30.09 in 10.0 mi Calm Calm - N/A   Clear
2:35 AM 26.6 °F 22.6 °F 19.4 °F 74% 30.09 in 10.0 mi WNW 3.5 mph - N/A   Clear
2:55 AM 24.8 °F - 19.4 °F 80% 30.08 in 10.0 mi Calm Calm - N/A   Clear
3:14 AM 24.8 °F - 19.4 °F 80% 30.07 in 10.0 mi Calm Calm - N/A   Clear
3:35 AM 23.0 °F - 19.4 °F 86% 30.06 in 10.0 mi Calm Calm - N/A   Clear
3:55 AM 23.0 °F - 19.4 °F 86% 30.05 in 10.0 mi Calm Calm - N/A   Clear
4:15 AM 23.0 °F - 19.4 °F 86% 30.04 in 10.0 mi Calm Calm - N/A   Clear
4:35 AM 24.8 °F 20.5 °F 19.4 °F 80% 30.03 in 10.0 mi South 3.5 mph - N/A   Clear
4:55 AM 24.8 °F 20.5 °F 19.4 °F 80% 30.02 in 10.0 mi SSW 3.5 mph - N/A   Clear
5:15 AM 24.8 °F 20.5 °F 19.4 °F 80% 30.02 in 10.0 mi SW 3.5 mph - N/A   Clear
5:35 AM 24.8 °F - 19.4 °F 80% 30.02 in 10.0 mi Calm Calm - N/A   Clear
5:54 AM 26.6 °F - 19.4 °F 74% - 10.0 mi Calm Calm - N/A   Clear
6:15 AM 24.8 °F 20.5 °F 19.4 °F 80% 30.00 in 10.0 mi SSW 3.5 mph - N/A   Clear
6:35 AM 24.8 °F 20.5 °F 19.4 °F 80% 30.00 in 10.0 mi SSW 3.5 mph - N/A   Clear
6:54 AM 24.8 °F - 19.4 °F 80% 30.00 in 10.0 mi Calm Calm - N/A   Clear
7:15 AM 24.8 °F 20.5 °F 17.6 °F 74% 29.99 in 10.0 mi WSW 3.5 mph - N/A   Clear
7:35 AM 24.8 °F 19.1 °F 19.4 °F 80% 29.99 in 10.0 mi WSW 4.6 mph - N/A   Clear
7:54 AM 24.8 °F 20.5 °F 17.6 °F 74% 29.99 in 10.0 mi SW 3.5 mph - N/A   Clear
8:15 AM 24.8 °F 20.5 °F 19.4 °F 80% 30.00 in 10.0 mi SSW 3.5 mph - N/A   Scattered Clouds
8:35 AM 26.6 °F 19.1 °F 21.2 °F 80% - 10.0 mi WSW 6.9 mph - N/A   Scattered Clouds
8:54 AM 28.4 °F 19.7 °F 23.0 °F 80% 30.00 in 10.0 mi West 9.2 mph - N/A   Clear
9:15 AM 28.4 °F 19.7 °F 23.0 °F 80% 30.00 in 3.0 mi West 9.2 mph - N/A   Mostly Cloudy
9:34 AM 28.4 °F 18.5 °F 24.8 °F 86% 30.00 in 4.0 mi West 11.5 mph - N/A   Overcast
9:55 AM 28.4 °F 19.7 °F 24.8 °F 86% 30.00 in 4.0 mi West 9.2 mph - N/A   Overcast
10:15 AM 30.2 °F 21.3 °F 26.6 °F 86% 30.00 in 5.0 mi West 10.4 mph - N/A   Overcast
10:34 AM 30.2 °F 20.8 °F 24.8 °F 80% 30.01 in 7.0 mi West 11.5 mph - N/A   Overcast
10:55 AM 30.2 °F 20.2 °F 24.8 °F 80% 30.01 in 5.0 mi West 12.7 mph - N/A   Overcast
11:15 AM 30.2 °F 19.8 °F 23.0 °F 75% 30.02 in 10.0 mi NW 13.8 mph - N/A   Overcast
11:34 AM 28.4 °F 17.5 °F 23.0 °F 80% 30.03 in 3.0 mi NW 13.8 mph 21.9 mph N/A   Overcast
11:55 AM 28.4 °F 16.6 °F 24.8 °F 86% 30.04 in 1.0 mi WNW 16.1 mph 23.0 mph N/A   Overcast
12:15 PM 30.2 °F 18.1 °F 24.8 °F 80% 30.04 in 7.0 mi WNW 18.4 mph 23.0 mph N/A   Mostly Cloudy
12:35 PM 30.2 °F 17.1 °F 21.2 °F 69% 30.04 in 10.0 mi NW 21.9 mph 25.3 mph N/A   Scattered Clouds
12:55 PM 30.2 °F 18.5 °F 23.0 °F 75% 30.05 in 7.0 mi NW 17.3 mph 20.7 mph N/A   Mostly Cloudy
1:14 PM 30.2 °F 18.9 °F 21.2 °F 69% 30.05 in 10.0 mi NW 16.1 mph 20.7 mph N/A   Mostly Cloudy
1:35 PM 32.0 °F 21.2 °F 19.4 °F 60% 30.06 in 10.0 mi NW 16.1 mph 21.9 mph N/A   Scattered Clouds
1:55 PM 30.2 °F 19.3 °F 21.2 °F 69% 30.07 in 4.0 mi NW 15.0 mph 28.8 mph N/A   Scattered Clouds
2:14 PM 35.6 °F 25.9 °F 17.6 °F 48% 30.06 in 10.0 mi NNW 16.1 mph 25.3 mph N/A   Scattered Clouds
2:35 PM 32.0 °F 19.8 °F 12.2 °F 44% 30.06 in 10.0 mi NW 20.7 mph 28.8 mph N/A   Scattered Clouds
2:55 PM 33.8 °F 22.2 °F 14.0 °F 44% 30.06 in 10.0 mi NW 20.7 mph 27.6 mph N/A   Scattered Clouds
3:15 PM 32.0 °F 20.5 °F 12.2 °F 44% 30.07 in 10.0 mi NW 18.4 mph 26.5 mph N/A   Clear
3:35 PM 32.0 °F 22.1 °F 14.0 °F 48% 30.06 in 10.0 mi NW 13.8 mph 25.3 mph N/A   Clear
3:54 PM 32.0 °F 20.5 °F 12.2 °F 44% 30.07 in 10.0 mi NW 18.4 mph 31.1 mph N/A   Clear
4:15 PM 32.0 °F 20.8 °F 14.0 °F 48% 30.07 in 10.0 mi NW 17.3 mph 24.2 mph N/A   Clear
4:35 PM 32.0 °F 18.4 °F 15.8 °F 51% 30.08 in 10.0 mi WNW 26.5 mph 32.2 mph N/A   Scattered Clouds
4:54 PM 32.0 °F 20.8 °F 21.2 °F 64% 30.08 in 7.0 mi WNW 17.3 mph - N/A   Scattered Clouds
5:15 PM 30.2 °F 19.8 °F 19.4 °F 64% 30.09 in 7.0 mi NW 13.8 mph 19.6 mph N/A   Scattered Clouds
5:35 PM 28.4 °F 15.1 °F 17.6 °F 64% 30.10 in 10.0 mi NW 20.7 mph 28.8 mph N/A   Scattered Clouds
5:54 PM 30.2 °F 19.3 °F 17.6 °F 60% 30.10 in 10.0 mi NW 15.0 mph 26.5 mph N/A   Clear
6:15 PM 30.2 °F 17.8 °F 15.8 °F 55% 30.10 in 10.0 mi WNW 19.6 mph - N/A   Scattered Clouds
6:35 PM 30.2 °F 15.9 °F 10.4 °F 44% 30.10 in 10.0 mi WNW 26.5 mph 29.9 mph N/A   Scattered Clouds
6:55 PM 28.4 °F 15.8 °F 14.0 °F 55% - 10.0 mi WNW 18.4 mph 27.6 mph N/A   Scattered Clouds
7:15 PM 28.4 °F 14.7 °F 14.0 °F 55% 30.13 in 10.0 mi WNW 21.9 mph 27.6 mph N/A   Clear
7:34 PM 26.6 °F 15.7 °F 17.6 °F 69% 30.14 in 7.0 mi NW 12.7 mph 18.4 mph N/A   Scattered Clouds
7:55 PM 26.6 °F 13.1 °F 17.6 °F 69% 30.14 in 5.0 mi WNW 19.6 mph 25.3 mph N/A   Mostly Cloudy
8:15 PM 26.6 °F 15.7 °F 15.8 °F 64% 30.15 in 10.0 mi WNW 12.7 mph - N/A   Mostly Cloudy
8:34 PM 26.6 °F 15.2 °F 17.6 °F 69% 30.16 in 5.0 mi WNW 13.8 mph 24.2 mph N/A   Mostly Cloudy
8:55 PM 26.6 °F 13.1 °F 15.8 °F 64% 30.16 in 10.0 mi WNW 19.6 mph 24.2 mph N/A   Mostly Cloudy
9:15 PM 24.8 °F 14.0 °F 14.0 °F 64% 30.17 in 10.0 mi NW 11.5 mph 20.7 mph N/A   Scattered Clouds
9:34 PM 24.8 °F 14.0 °F 14.0 °F 64% 30.18 in 10.0 mi WNW 11.5 mph 17.3 mph N/A   Mostly Cloudy
9:55 PM 24.8 °F 12.4 °F 12.2 °F 59% 30.18 in 10.0 mi WNW 15.0 mph 20.7 mph N/A   Mostly Cloudy
10:15 PM 24.8 °F 12.9 °F 10.4 °F 54% 30.19 in 10.0 mi NW 13.8 mph - N/A   Mostly Cloudy
10:35 PM 24.8 °F 14.0 °F 10.4 °F 54% 30.19 in 10.0 mi NW 11.5 mph - N/A   Scattered Clouds
10:55 PM 24.8 °F 15.3 °F 12.2 °F 59% 30.20 in 10.0 mi NW 9.2 mph - N/A   Scattered Clouds
11:14 PM 24.8 °F 11.5 °F 8.6 °F 50% 30.21 in 10.0 mi WNW 17.3 mph 21.9 mph N/A   Scattered Clouds
11:35 PM 24.8 °F 14.0 °F 10.4 °F 54% 30.21 in 10.0 mi NW 11.5 mph 19.6 mph N/A   Mostly Cloudy
11:55 PM 24.8 °F 14.6 °F 10.4 °F 54% 30.21 in 10.0 mi NW 10.4 mph 17.3 mph N/A   Overcast